Location: Baraques
(50.9667°N, 1.8167°E)
Time: 11:45:42
(UTC+00:00)

Daily predictions for brighter satellites

Satellite Brightness Start Highest point End
(mag) Time Altitude Azimuth Time Altitude Azimuth Time Altitude Azimuth
Meteor 1-24 Rocket 3.7 19:07:45 10° N 19:13:12 78° ENE 19:18:48 10° SSE
Cosmos 1538 Rocket 4.0 19:08:20 10° NNW 19:13:30 88° WSW 19:18:40 10° SSE
Cosmos 2333 4.3 19:09:23 10° S 19:14:46 51° ESE 19:20:11 10° NE
CENTAUR R/B 4.4 19:07:34 10° NW 19:15:25 45° WSW 19:24:11 10° S
Cosmos 372 Rocket 4.1 19:11:05 10° S 19:16:11 58° ESE 19:21:19 10° NNE
Cosmos 1680 Rocket 4.2 19:12:01 10° NNW 19:16:55 39° NE 19:21:46 10° SE
Cosmos 2219 Rocket 2.5 19:15:25 10° S 19:20:39 44° ESE 19:25:56 10° NE
SPOT 5 2.8 19:16:50 10° SSE 19:21:36 81° ENE 19:26:09 10° NNW
CZ-4B R/B 3.6 19:20:20 10° SSE 19:23:53 70° ENE 19:27:37 10° N
Cosmos 2074 Rocket 4.0 19:18:00 10° S 19:24:10 70° E 19:30:24 10° NNE
Meteor 1-31 Rocket 2.5 19:23:02 10° SSE 19:26:32 71° ENE 19:30:04 10° N
Cosmos 1937 Rocket 3.9 19:22:01 10° S 19:26:57 41° ESE 19:31:54 10° NE
SL-24 R/B - RUBIN 2 3.9 19:26:42 10° NW 19:31:01 54° NE 19:35:17 11° ESE
Cosmos 923 Rocket 4.1 19:27:44 10° NNW 19:33:03 65° ENE 19:38:18 10° SE
Cosmos 2112 Rocket 4.5 19:29:32 10° NNW 19:34:33 44° ENE 19:39:17 11° SE
USA 234 3.3 19:28:39 10° ENE 19:35:13 74° SE 19:41:47 10° SW
NOSS 2-3 (E) 4.3 19:31:39 10° NW 19:36:24 65° NE 19:42:19 12° SE
COSMOS 2428 3.8 19:33:56 10° SSE 19:38:15 22° ESE 19:42:34 10° NE
NOSS 2-3 (C) 4.4 19:35:15 10° NW 19:39:50 56° NE 19:45:27 13° ESE
IRAS Rocket 4.4 19:34:28 10° SSE 19:39:58 76° WSW 19:45:30 10° NNW
Cosmos 1953 2.4 19:36:55 10° SSW 19:40:28 67° WNW 19:44:03 10° N
Meteor 1-15 Rocket 4.2 19:35:10 10° S 19:40:43 84° E 19:46:21 10° NNE
PAYLOAD B 4.2 19:35:31 10° SSE 19:40:58 69° ENE 19:46:27 10° NNW
CZ-4B R/B 3.4 19:36:06 10° SE 19:41:31 59° ENE 19:47:02 10° N
MetOp-B 4.3 19:36:39 10° SSE 19:41:54 59° ENE 19:47:10 10° N
CZ-4B DEB 4.2 19:36:39 10° SSE 19:42:06 79° ENE 19:47:37 10° NNW
CSL-04 Rocket 4.0 19:36:56 10° S 19:42:27 75° WSW 19:48:02 10° NNW
Cosmos 2278 Rocket 3.2 19:38:13 10° NNW 19:43:21 33° NE 19:47:49 13° ESE
NOSS 3-2 (C) 4.1 19:41:11 10° NW 19:48:18 88° NE 19:56:23 12° SE
Cosmos 2333 Rocket 3.0 19:43:42 10° SW 19:49:16 56° NW 19:54:51 10° NNE
Cosmos 1703 Rocket 3.5 19:49:04 10° N 19:53:25 88° ENE 19:57:44 10° S
Geosat 4.0 19:49:39 10° NE 19:54:38 59° ESE 19:59:33 10° SSW
BREEZE-M DEB (TANK) 1.9 19:53:36 10° W 19:56:00 69° S 19:59:33 14° E
Spot 2 Rocket 3.9 19:53:55 14° SE 19:57:54 44° ENE 20:02:40 10° N
Cosmos 1470 Rocket 3.7 19:53:35 10° SSW 19:57:57 77° W 20:02:21 10° N
Meteor 2-5 Rocket 4.4 19:52:51 10° NNW 19:58:14 55° W 20:03:37 10° S
NOSS 2-3 (D) 4.1 19:53:54 10° NW 19:58:45 82° NE 20:03:54 16° SE
Lacrosse 5 rocket 1.5 19:56:13 10° SSW 19:59:03 29° SE 20:00:40 18° E
ARIANE 6 FM1 Upper Stage 2.5 19:56:17 10° SW 20:00:25 86° SE 20:04:28 10° NE
CZ-2C R/B 4.4 20:00:39 11° ENE 20:01:00 11° ENE 20:01:52 10° NE
ERS-1 Rocket 3.0 19:58:30 10° SSE 20:03:29 89° SW 20:08:32 10° NNW
Nadezhda 3 Rocket 4.4 19:57:28 10° NNW 20:03:36 67° W 20:09:40 10° S
Cosmos 1933 Rocket 3.6 20:01:06 10° S 20:05:24 60° E 20:09:45 10° NNE
Cosmos 1943 Rocket 2.5 20:03:36 10° NNW 20:09:11 54° NE 20:12:59 20° SE
Helios 1A Rocket 2.9 20:07:43 10° N 20:10:56 60° WNW 20:14:06 10° SSW
Cosmos 2218 Rocket 4.3 20:06:09 10° SSE 20:11:52 43° E 20:17:38 10° NNE
In-Cosmos 22 Rocket 4.0 20:09:16 10° N 20:14:40 75° ENE 20:19:03 15° SSE
Meteor 1-12 Rocket 4.3 20:08:54 10° S 20:14:52 81° E 20:20:55 10° NNE
USA 59 Rocket 1.3 20:13:01 10° NNW 20:15:24 20° NNE 20:17:17 14° ENE
MOS 1-B 4.4 20:14:20 17° SSE 20:18:52 68° ENE 20:24:37 10° NNW
Cosmos 1733 Rocket 4.1 20:18:20 24° ESE 20:19:19 26° E 20:22:57 10° NNE
CZ-4B R/B 4.1 20:20:21 23° ESE 20:22:41 37° ENE 20:27:04 10° N
Cosmos 494 Rocket 4.0 20:17:36 10° NNW 20:22:48 88° WSW 20:26:29 20° SSE
SeaSat 1 4.1 20:19:54 14° E 20:22:48 23° NE 20:26:34 10° N
Okean-O 2.6 20:20:35 23° SSE 20:23:16 65° ENE 20:27:38 10° N
ATLAS 3B R/B 3.8 20:17:10 10° WSW 20:24:46 55° NW 20:32:32 10° NE
Cosmos 1821 Rocket 4.4 20:22:24 19° SSE 20:26:23 41° E 20:32:14 10° NNE
Cosmos 1048 Rocket 4.2 20:22:10 10° NNW 20:27:13 56° ENE 20:29:52 27° SE
Cosmos 962 Rocket 4.4 20:21:08 10° S 20:27:23 80° E 20:33:36 10° NNE
Cosmos 2360 Rocket 3.4 20:22:45 10° SW 20:28:09 46° NW 20:33:36 10° NNE
Timation 2 Rocket 4.2 20:26:25 10° NNW 20:32:36 62° NE 20:36:19 26° SE
Cosmos 1869 Rocket 3.5 20:30:59 10° S 20:35:21 86° ESE 20:39:49 10° N
Cosmos 2322 Rocket 3.7 20:31:02 10° WSW 20:36:15 39° NW 20:41:31 10° NNE
ADEOS 4.1 20:32:48 10° S 20:37:53 56° W 20:43:02 10° NNW
Aureole 3 3.9 20:34:36 10° N 20:38:30 47° ENE 20:40:03 34° SE
Terra 2.6 20:34:16 10° S 20:38:49 50° W 20:43:24 10° NNW
CZ-4 R/B 3.6 20:37:23 10° SW 20:40:22 22° W 20:43:21 10° NW
ATLAS 5 CENTAUR R/B 4.0 20:42:28 10° NW 20:44:01 13° N 20:45:38 10° NNE
Cosmos 2242 Rocket 3.6 20:40:18 10° N 20:44:48 62° ENE 20:46:21 37° SE
Okean O Rocket 1.7 20:43:57 25° S 20:46:26 73° WSW 20:50:48 10° NNW
SL-08 R/B 3.5 20:42:20 10° NNE 20:47:14 79° WNW 20:52:07 10° SSW
Cosmos 2237 Rocket 2.8 20:47:31 31° ESE 20:48:15 32° ESE 20:53:15 10° NE
Cosmos 1025 Rocket 3.9 20:45:06 10° N 20:48:55 31° ENE 20:49:24 31° E
Cosmos 1980 4.2 20:47:57 32° SE 20:49:02 35° ESE 20:54:06 10° NE
Cosmos 2322 3.6 20:46:21 10° SSW 20:52:03 81° ESE 20:57:49 10° NNE
CZ-4B R/B 2.5 20:51:35 55° ESE 20:52:09 66° ENE 20:55:40 10° N
ASTEX 1 3.4 20:50:47 35° SSE 20:52:45 66° E 20:57:38 10° N
Cosmos 2341 Rocket 4.0 20:47:56 10° S 20:54:10 86° WNW 21:00:31 10° N
Meteor 1-21 Rocket 4.4 20:51:58 10° NNW 20:57:33 71° W 21:01:08 23° S
Cosmos 1400 Rocket 3.6 21:03:02 32° ENE 21:03:02 32° ENE 21:05:27 10° NNE
USA 186 3.5 21:04:43 19° WNW 21:04:43 19° WNW 21:05:52 10° NW
SPOT 3 Rocket 3.5 21:02:11 38° SSE 21:04:15 81° ENE 21:09:28 10° NNW
Cosmos 2219 Rocket 3.5 20:59:25 10° WSW 21:04:39 40° NW 21:09:56 10° NNE
SOZ 4.4 21:04:32 10° WNW 21:10:08 90° SW 21:10:17 81° ESE
Meteor 2-21 Rocket 4.4 21:06:18 10° N 21:12:26 75° ENE 21:14:51 39° SSE
USA 245 3.7 21:17:15 50° SSW 21:18:06 64° W 21:22:42 10° NNW
USA 234 3.7 21:11:45 10° ENE 21:18:11 61° NNW 21:24:37 10° W
Cosmos 2369 Rocket 3.5 21:14:03 10° NNW 21:18:55 29° NE 21:20:57 23° ENE
Cosmos 1674 Rocket 3.4 21:15:19 10° N 21:19:38 72° E 21:19:57 68° ESE
COSMOS 2428 2.9 21:16:10 10° SW 21:21:53 74° WNW 21:27:40 10° NNE
Helios 1B rocket 4.0 21:23:49 19° NE 21:23:49 19° NE 21:25:44 10° NNE
NOSS 0 Rocket 3.8 21:18:36 10° SSW 21:24:51 81° ESE 21:31:07 10° NNE
Cosmos 1727 Rocket 4.0 21:19:30 10° N 21:25:54 86° W 21:28:33 38° S
Cosmos 2278 Rocket 2.6 21:22:11 10° NW 21:27:45 57° WSW 21:29:39 38° S
Ariane Rocket 2.9 21:26:52 51° S 21:28:09 81° WSW 21:33:14 10° NNW
USA 238 DEB 3.9 21:21:43 10° NW 21:29:03 78° SW 21:32:16 40° SSE
USA 238 3.9 21:21:53 10° NW 21:29:14 79° SW 21:32:26 40° SSE
Cosmos 2221 Rocket 3.7 21:25:55 10° N 21:30:11 56° ENE 21:30:11 56° ENE
CZ-2C R/B 3.7 21:32:30 35° NW 21:32:30 35° NW 21:34:27 10° NNW
Cosmos 1346 Rocket 3.1 21:28:39 10° N 21:31:34 52° NNE 21:31:34 52° NNE
Lacrosse 5 rocket 2.5 21:32:25 10° WSW 21:34:04 26° W 21:34:04 26° W
Cosmos 1378 Rocket 4.1 21:35:13 10° NNW 21:39:30 52° W 21:40:16 45° SW
DNEPR-1 R/B 4.3 21:45:57 41° NE 21:45:57 41° NE 21:48:57 10° NE
Meteor 2-8 Rocket 4.3 21:47:10 46° S 21:49:08 89° WNW 21:55:14 10° N
Cosmos 1656 Rocket 3.5 21:44:09 10° NNW 21:49:37 74° ENE 21:50:17 65° ESE
Cosmos 1943 Rocket 3.5 21:47:42 10° NW 21:52:41 32° WSW 21:54:29 26° SW
Cosmos 614 Rocket 4.2 21:48:14 10° NNW 21:53:21 59° WSW 21:53:59 54° SW
SL-16 R/B 3.5 21:58:05 26° ENE 21:58:05 26° ENE 22:01:13 10° NE
Cosmos 1733 Rocket 4.3 21:55:13 28° WSW 21:56:48 37° WNW 22:00:55 10° N
SeaSat 1 2.3 21:59:30 84° SSE 21:59:40 89° WSW 22:04:36 10° NNW
Cosmos 2123 Rocket 3.9 21:56:13 10° NNW 22:02:29 82° W 22:03:50 58° S
USA 59 Rocket 1.0 22:00:53 10° NW 22:02:48 34° WNW 22:02:48 34° WNW
Cosmos 1934 Rocket 3.9 22:03:44 62° SSE 22:04:50 79° E 22:11:07 10° NNE
Cosmos 1140 Rocket 4.5 22:03:40 10° NNW 22:08:24 35° NE 22:08:44 34° ENE
NOSS 3-4 (A) 3.1 22:10:28 50° SW 22:11:58 85° NW 22:17:57 10° NE
NOSS 3-4 (C) 3.1 22:11:02 52° SW 22:12:27 86° NW 22:18:29 10° NE
Cosmos 1300 Rocket 4.5 22:17:13 42° NNE 22:17:13 42° NNE 22:20:08 10° NNE
Cosmos 2285 Rocket 4.1 22:19:16 56° E 22:19:16 56° E 22:25:15 10° NNE
NOSS 3-1 (C) 4.1 22:19:28 10° NW 22:26:04 65° NE 22:28:44 43° ESE
Cosmos 1025 Rocket 4.5 22:22:36 10° NNW 22:26:07 29° W 22:26:07 29° W
Cosmos 1535 Rocket 4.3 22:26:51 72° ESE 22:27:02 73° E 22:33:09 10° NNE
ATLAS 5 CENTAUR R/B 4.0 22:25:19 10° NNW 22:27:31 15° NNE 22:29:34 11° NE
RESURS DK-1 4.2 22:30:06 24° NNE 22:30:06 24° NNE 22:31:47 10° NNE
ALOS 2 3.9 22:29:40 32° NE 22:29:40 32° NE 22:32:49 10° N
Cosmos 2237 Rocket 2.9 22:29:12 28° WSW 22:32:04 53° NW 22:37:40 10° NNE
Cosmos 1125 Rocket 4.1 22:31:27 44° WSW 22:32:37 53° WNW 22:37:47 10° NNE
Cosmos 1605 Rocket 3.8 22:32:45 74° ESE 22:32:51 75° E 22:38:58 10° NNE
Cosmos 1980 4.5 22:29:38 23° WSW 22:32:56 49° NW 22:38:26 10° NNE
Cosmos 1269 Rocket 4.5 22:32:15 10° NNW 22:37:13 52° NE 22:37:13 52° NE
Cosmos 2297 3.7 22:31:41 10° NNW 22:37:28 76° ENE 22:37:29 76° ENE
ARIANE 5 R/B 3.7 22:40:11 40° NNE 22:40:11 40° NNE 22:43:15 10° N
Cosmos 1975 Rocket 3.9 22:38:13 10° NNW 22:41:32 49° NNW 22:41:32 49° NNW
COSMOS 2455 4.0 22:37:49 10° NNW 22:43:23 37° NE 22:45:16 30° ENE
Cosmos 2150 Rocket 4.4 22:54:11 58° NNE 22:54:11 58° NNE 22:58:21 10° NNE
Cosmos 2100 Rocket 4.5 23:00:25 46° ENE 23:00:25 46° ENE 23:05:48 10° NNE
USA 234 3.9 22:54:25 10° E 23:00:45 54° N 23:07:06 10° WNW
Cosmos 2369 Rocket 2.4 22:57:50 10° NW 23:02:43 61° WNW 23:02:43 61° WNW
Cosmos 2263 4.4 23:04:10 10° NNW 23:09:06 67° WNW 23:09:06 67° WNW
NOSS 3-1 (A) 4.1 23:10:33 10° NW 23:17:12 64° NE 23:19:58 42° ESE
Cosmos 1943 4.0 23:21:35 41° ENE 23:21:35 41° ENE 23:25:34 10° NE
SJ 16-02 2.9 23:30:35 10° NNW 23:33:16 31° NNE 23:33:16 31° NNE
Cosmos 407 Rocket 4.0 23:30:15 10° NNW 23:34:21 56° N 23:34:21 56° N
ACS3 Solar Sail 3.7 23:36:22 10° NE 23:40:00 16° E 23:40:25 16° E
SL-16 R/B 2.7 23:39:53 53° WNW 23:40:08 53° NW 23:45:42 10° NNE
Cosmos 1802 Rocket 4.1 23:43:35 65° E 23:43:35 65° E 23:49:36 10° NNE
CZ-2C R/B 3.0 23:44:18 62° NE 23:44:18 62° NE 23:49:21 10° N
Meteor 2-3 Rocket 3.9 23:40:55 10° NNW 23:45:50 69° N 23:45:50 69° N
Cosmos 1725 Rocket 4.1 23:48:08 65° E 23:48:08 65° E 23:54:09 10° NNE
